When you browse on this site, cookies collect data to enhance your experience and personalize the content and advertising you see.
Visit our Privacy Policy to learn more. By continuing to use the site, you agree to this use of cookies and data.

Previsão horária em Totonicapán

Hoje, 24 Setembro, Quinta-feira

Tempo Temperatura Precipitação Vento Pressão Humidade
00:00 +10°C° 0.9 mm 0 m/s 553 mmHg 95%
01:00 +10°C° 0.3 mm 0 m/s 553 mmHg 95%
02:00 +9°C° 0.3 mm 0 m/s 553 mmHg 95%
03:00 +9°C° 0.3 mm 0 m/s 552 mmHg 95%
04:00 +9°C° 0 mm 0 m/s 552 mmHg 95%
05:00 +10°C° 0 mm 1 m/s 552 mmHg 94%
06:00 +9°C° 0 mm 1 m/s 552 mmHg 94%
07:00 +12°C° 0 mm 1 m/s 554 mmHg 87%
08:00 +15°C° 0 mm 1 m/s 555 mmHg 79%
09:00 +18°C° 0 mm 1 m/s 557 mmHg 72%
10:00 +19°C° 0.4 mm 1 m/s 557 mmHg 70%
11:00 +18°C° 0.4 mm 2 m/s 557 mmHg 67%
12:00 +19°C° 0.4 mm 2 m/s 558 mmHg 65%
13:00 +18°C° 1.1 mm 2 m/s 557 mmHg 71%
14:00 +17°C° 1.1 mm 2 m/s 556 mmHg 77%
15:00 +16°C° 1.1 mm 2 m/s 555 mmHg 84%
16:00 +15°C° 0.8 mm 1 m/s 554 mmHg 88%
17:00 +14°C° 0.8 mm 1 m/s 553 mmHg 92%
18:00 +11°C° 0.8 mm 0 m/s 553 mmHg 96%
19:00 +11°C° 0.2 mm 0 m/s 553 mmHg 96%
20:00 +10°C° 0.2 mm 0 m/s 553 mmHg 95%
21:00 +10°C° 0.2 mm 0 m/s 554 mmHg 94%
22:00 +10°C° 0 mm 0 m/s 554 mmHg 94%
23:00 +9°C° 0 mm 0 m/s 553 mmHg 93%

Amanhã, 25 Setembro, Sexta-feira

Tempo Temperatura Precipitação Vento Pressão Humidade
00:00 +9°C° 0 mm 0 m/s 553 mmHg 93%
01:00 +9°C° 0 mm 0 m/s 553 mmHg 93%
02:00 +10°C° 0 mm 1 m/s 553 mmHg 92%
03:00 +9°C° 0 mm 1 m/s 552 mmHg 92%
04:00 +10°C° 0 mm 1 m/s 552 mmHg 92%
05:00 +10°C° 0 mm 1 m/s 553 mmHg 92%
06:00 +9°C° 0 mm 0 m/s 553 mmHg 92%
07:00 +12°C° 0 mm 1 m/s 554 mmHg 86%
08:00 +14°C° 0 mm 1 m/s 556 mmHg 81%
09:00 +16°C° 0 mm 1 m/s 557 mmHg 75%
10:00 +16°C° 1.1 mm 1 m/s 557 mmHg 79%
11:00 +16°C° 1.1 mm 1 m/s 557 mmHg 82%
12:00 +16°C° 1.1 mm 1 m/s 556 mmHg 85%
13:00 +15°C° 1.4 mm 1 m/s 556 mmHg 88%
14:00 +15°C° 1.4 mm 1 m/s 555 mmHg 91%
15:00 +14°C° 1.4 mm 1 m/s 554 mmHg 93%
16:00 +13°C° 0.5 mm 1 m/s 554 mmHg 94%
17:00 +13°C° 0.5 mm 1 m/s 554 mmHg 95%
18:00 +12°C° 0.5 mm 1 m/s 553 mmHg 96%
19:00 +12°C° 0.2 mm 1 m/s 554 mmHg 95%
20:00 +12°C° 0.2 mm 1 m/s 554 mmHg 94%
21:00 +11°C° 0.2 mm 1 m/s 554 mmHg 93%
22:00 +11°C° 0.1 mm 1 m/s 554 mmHg 92%
23:00 +11°C° 0.1 mm 1 m/s 554 mmHg 92%

Depois de amanhã, 26 Setembro, Sábado

Tempo Temperatura Precipitação Vento Pressão Humidade
00:00 +10°C° 0.1 mm 1 m/s 554 mmHg 91%
01:00 +10°C° 0 mm 1 m/s 553 mmHg 91%
02:00 +10°C° 0 mm 1 m/s 553 mmHg 92%
03:00 +10°C° 0 mm 1 m/s 552 mmHg 92%
04:00 +10°C° 0 mm 1 m/s 552 mmHg 91%
05:00 +10°C° 0 mm 1 m/s 552 mmHg 91%
06:00 +10°C° 0 mm 1 m/s 552 mmHg 91%
07:00 +12°C° 0 mm 1 m/s 554 mmHg 85%
08:00 +14°C° 0 mm 1 m/s 556 mmHg 78%
09:00 +18°C° 0 mm 1 m/s 557 mmHg 71%
10:00 +18°C° 0.6 mm 1 m/s 557 mmHg 74%
11:00 +17°C° 0.6 mm 2 m/s 557 mmHg 77%
12:00 +17°C° 0.6 mm 2 m/s 557 mmHg 80%
13:00 +16°C° 1.2 mm 2 m/s 556 mmHg 84%
14:00 +15°C° 1.2 mm 1 m/s 555 mmHg 88%
15:00 +14°C° 1.2 mm 1 m/s 553 mmHg 92%
16:00 +14°C° 0.7 mm 1 m/s 553 mmHg 94%
17:00 +12°C° 0.7 mm 0 m/s 553 mmHg 95%
18:00 +12°C° 0.7 mm 0 m/s 553 mmHg 97%
19:00 +11°C° 0.5 mm 0 m/s 553 mmHg 96%
20:00 +11°C° 0.5 mm 0 m/s 554 mmHg 95%
21:00 +11°C° 0.5 mm 0 m/s 554 mmHg 95%
22:00 +10°C° 0.3 mm 0 m/s 554 mmHg 95%
23:00 +10°C° 0.3 mm 0 m/s 553 mmHg 95%

27 Setembro, Domingo

Tempo Temperatura Precipitação Vento Pressão Humidade
00:00 +9°C° 0.3 mm 0 m/s 553 mmHg 95%
01:00 +9°C° 0.2 mm 0 m/s 553 mmHg 95%
02:00 +10°C° 0.2 mm 1 m/s 552 mmHg 94%
03:00 +10°C° 0.2 mm 1 m/s 552 mmHg 94%
04:00 +10°C° 0 mm 1 m/s 552 mmHg 93%
05:00 +10°C° 0 mm 1 m/s 552 mmHg 93%
06:00 +10°C° 0 mm 1 m/s 552 mmHg 93%
07:00 +12°C° 0 mm 1 m/s 553 mmHg 88%
08:00 +13°C° 0 mm 1 m/s 555 mmHg 84%
09:00 +14°C° 0 mm 0 m/s 556 mmHg 79%
10:00 +16°C° 0.7 mm 1 m/s 556 mmHg 79%
11:00 +18°C° 0.7 mm 1 m/s 556 mmHg 78%
12:00 +17°C° 0.7 mm 2 m/s 556 mmHg 77%
13:00 +17°C° 1.8 mm 2 m/s 555 mmHg 80%
14:00 +16°C° 1.8 mm 2 m/s 554 mmHg 83%
15:00 +16°C° 1.8 mm 2 m/s 554 mmHg 86%
16:00 +15°C° 0.9 mm 1 m/s 553 mmHg 89%
17:00 +13°C° 0.9 mm 1 m/s 553 mmHg 93%
18:00 +12°C° 0.9 mm 1 m/s 552 mmHg 97%
19:00 +11°C° 0.3 mm 1 m/s 552 mmHg 96%
20:00 +11°C° 0.3 mm 1 m/s 552 mmHg 95%
21:00 +10°C° 0.3 mm 1 m/s 553 mmHg 94%
22:00 +10°C° 0.1 mm 1 m/s 552 mmHg 93%
23:00 +10°C° 0.1 mm 1 m/s 552 mmHg 92%

28 Setembro, Segunda-feira

Tempo Temperatura Precipitação Vento Pressão Humidade
00:00 +9°C° 0.1 mm 1 m/s 552 mmHg 91%
01:00 +9°C° 0 mm 1 m/s 551 mmHg 90%
02:00 +9°C° 0 mm 1 m/s 551 mmHg 90%
03:00 +9°C° 0 mm 1 m/s 551 mmHg 89%
04:00 +9°C° 0 mm 1 m/s 551 mmHg 89%
05:00 +9°C° 0 mm 1 m/s 551 mmHg 88%
06:00 +9°C° 0 mm 1 m/s 551 mmHg 88%
07:00 +11°C° 0 mm 1 m/s 552 mmHg 81%
08:00 +14°C° 0 mm 1 m/s 554 mmHg 73%
09:00 +18°C° 0 mm 1 m/s 556 mmHg 66%
10:00 +18°C° 0.5 mm 1 m/s 556 mmHg 67%
11:00 +17°C° 0.5 mm 2 m/s 556 mmHg 67%
12:00 +18°C° 0.5 mm 2 m/s 556 mmHg 68%
13:00 +17°C° 1.5 mm 2 m/s 555 mmHg 74%
14:00 +16°C° 1.5 mm 2 m/s 554 mmHg 80%
15:00 +15°C° 1.5 mm 2 m/s 553 mmHg 86%
16:00 +14°C° 0.8 mm 1 m/s 552 mmHg 89%
17:00 +13°C° 0.8 mm 1 m/s 552 mmHg 92%
18:00 +12°C° 0.8 mm 1 m/s 552 mmHg 95%
19:00 +11°C° 0.3 mm 1 m/s 552 mmHg 93%
20:00 +10°C° 0.3 mm 1 m/s 552 mmHg 92%
21:00 +10°C° 0.3 mm 1 m/s 552 mmHg 90%
22:00 +9°C° 0.1 mm 1 m/s 552 mmHg 90%
23:00 +9°C° 0.1 mm 1 m/s 552 mmHg 90%

29 Setembro, Terça-feira

Tempo Temperatura Precipitação Vento Pressão Humidade
00:00 +9°C° 0.1 mm 1 m/s 551 mmHg 90%
01:00 +9°C° 0 mm 1 m/s 551 mmHg 89%
02:00 +9°C° 0 mm 1 m/s 551 mmHg 89%
03:00 +8°C° 0 mm 1 m/s 550 mmHg 88%
04:00 +8°C° 0 mm 1 m/s 550 mmHg 87%
05:00 +8°C° 0 mm 1 m/s 550 mmHg 86%
06:00 +8°C° 0 mm 1 m/s 551 mmHg 85%
07:00 +11°C° 0 mm 1 m/s 552 mmHg 77%
08:00 +14°C° 0 mm 1 m/s 554 mmHg 69%
09:00 +16°C° 0 mm 1 m/s 556 mmHg 62%
10:00 +18°C° 0.3 mm 1 m/s 556 mmHg 64%
11:00 +17°C° 0.3 mm 2 m/s 555 mmHg 66%
12:00 +17°C° 0.3 mm 2 m/s 555 mmHg 68%
13:00 +17°C° 1.4 mm 2 m/s 555 mmHg 74%
14:00 +16°C° 1.4 mm 2 m/s 554 mmHg 79%
15:00 +16°C° 1.4 mm 2 m/s 553 mmHg 84%
16:00 +14°C° 0.6 mm 1 m/s 553 mmHg 88%
17:00 +13°C° 0.6 mm 1 m/s 552 mmHg 92%
18:00 +12°C° 0.6 mm 1 m/s 552 mmHg 96%
19:00 +12°C° 0.4 mm 1 m/s 552 mmHg 95%
20:00 +11°C° 0.4 mm 1 m/s 553 mmHg 94%
21:00 +11°C° 0.4 mm 1 m/s 553 mmHg 94%
22:00 +11°C° 0.5 mm 1 m/s 553 mmHg 94%
23:00 +11°C° 0.5 mm 1 m/s 553 mmHg 95%
Mostrar mais